Location: Clarion
(42.7316°N, 93.7330°W)
Time: 09:37:23
(UTC+00:00)

ADEOS Rocket - Pass Details

Date: 22 April 2026
Orbit: 859 x 1304 km, 98.8° (Epoch: 16 May)

Event Time Altitude Azimuth Distance (km) Brightness Sun altitude
Rises 09:23:01 0° 7° (N) 4,184 7.0 -20.0°
Reaches altitude 10° 09:25:47 10° 1° (N) 3,254 6.3 -19.6°
Maximum altitude 09:32:44 41° 295° (WNW) 1,804 4.1 -18.6°
Enters shadow 09:36:34 25° 244° (WSW) 2,354 4.4 -18.0°
